Shelbyville, IN

11:06 AM EDT on June 23, 2017 (GMT -0400)
Shelbyville Municipal

Weather History for KGEZ - January, 2013

Change the Weather History Date:

Tuesday, January 22, 2013

  Actual Average Record
Temperature  
Mean Temperature 14 °F 29 °F  
Max Temperature 20 °F 36 °F 61 °F (1999)
Min Temperature 7 °F 21 °F -9 °F (2011)
Degree Days  
Heating Degree Days 51 36  
Month to date heating degree days 739 792  
Since 1 July heating degree days 2611 2896  
Cooling Degree Days 0 0  
Month to date cooling degree days 0 0  
Year to date cooling degree days 0 0  
Moisture  
Dew Point -2 °F    
Average Humidity 58    
Maximum Humidity 76    
Minimum Humidity 39    
Precipitation  
Precipitation 0.00 in 0.06 in 0.80 in (1999)
Month to date precipitation 2.80 1.88  
Year to date precipitation 2.80 1.88  
Sea Level Pressure  
Sea Level Pressure 30.34 in    
Wind  
Wind Speed 11 mph (WNW)    
Max Wind Speed 18 mph    
Max Gust Speed 25 mph    
Visibility 10 miles    
Events      
T = Trace of Precipitation, MM = Missing Value Source: NWS Daily Summary

Daily Weather History Graph

Daily Weather History Graph

Search for Another Location

Airport or City:

Trip Planner

Search our weather history database for the weather conditions in past years. The results will help you decide how hot, cold, wet, or windy it might be!

Date:

Astronomy

Jan. 22, 2013 Rise Set
Actual Time 7:58 AM EST 5:51 PM EST
Civil Twilight 7:29 AM EST 6:20 PM EST
Nautical Twilight 6:56 AM EST 6:53 PM EST
Astronomical Twilight 6:24 AM EST 7:25 PM EST
Moon 2:14 PM EST (1/22) 4:19 AM EST (1/22)
Length of Visible Light 10h 51m
Length of Day
9h 53m
Waxing Gibbous, 82% of the Moon is Illuminated
Jan 22
Waxing Gibbous
Jan 26
Full
Feb 3
Last Quarter
Feb 10
New
Feb 17
First Quarter

Hourly Weather History & Observations

Time (EST) Temp. Windchill Dew Point Humidity Pressure Visibility Wind Dir Wind Speed Gust Speed Precip Events Conditions
12:53 AM 12.0 °F -3.4 °F -2.9 °F 51% 30.28 in 10.0 mi WNW 13.8 mph - N/A   Clear
1:53 AM 10.9 °F -3.4 °F -0.9 °F 59% 30.28 in 10.0 mi NW 11.5 mph - N/A   Scattered Clouds
2:53 AM 10.0 °F -5.9 °F -2.9 °F 56% 30.30 in 10.0 mi NW 13.8 mph 19.6 mph N/A   Clear
3:53 AM 9.0 °F -4.2 °F -2.0 °F 61% 30.31 in 10.0 mi WNW 9.2 mph - N/A   Clear
4:53 AM 8.1 °F -7.7 °F -2.0 °F 64% 30.32 in 10.0 mi WNW 12.7 mph - N/A   Scattered Clouds
5:04 AM 8.6 °F -5.5 °F -2.2 °F 62% 30.27 in 10.0 mi WNW 10.4 mph - N/A   Mostly Cloudy
5:42 AM 8.6 °F -6.3 °F -2.2 °F 62% 30.28 in 10.0 mi WNW 11.5 mph - N/A   Partly Cloudy
5:53 AM 7.0 °F -6.6 °F -0.9 °F 70% 30.33 in 10.0 mi WNW 9.2 mph - N/A   Clear
6:53 AM 7.0 °F -6.6 °F -2.9 °F 64% 30.35 in 10.0 mi WNW 9.2 mph - N/A   Partly Cloudy
7:53 AM 7.0 °F -6.6 °F -2.9 °F 64% 30.37 in 10.0 mi WNW 9.2 mph - N/A   Scattered Clouds
8:53 AM 8.1 °F -6.2 °F -0.9 °F 67% 30.38 in 10.0 mi NW 10.4 mph - N/A   Scattered Clouds
9:15 AM 8.6 °F -5.5 °F -0.4 °F 67% 30.34 in 10.0 mi NW 10.4 mph - N/A   Mostly Cloudy
9:49 AM 10.4 °F -3.3 °F -2.2 °F 57% 30.35 in 10.0 mi NW 10.4 mph - N/A   Scattered Clouds
9:53 AM 9.0 °F -4.2 °F -2.0 °F 61% 30.40 in 10.0 mi NW 9.2 mph - N/A   Partly Cloudy
10:53 AM 12.0 °F -1.3 °F -0.9 °F 56% 30.41 in 10.0 mi NW 10.4 mph - N/A   Partly Cloudy
11:53 AM 12.9 °F 5.2 °F -2.0 °F 51% 30.40 in 10.0 mi West 4.6 mph - N/A   Clear
12:53 PM 16.0 °F 2.9 °F -4.0 °F 41% 30.37 in 10.0 mi West 11.5 mph - N/A   Clear
1:53 PM 18.0 °F 4.8 °F -2.9 °F 40% 30.34 in 10.0 mi West 12.7 mph 18.4 mph N/A   Clear
2:53 PM 19.0 °F 5.6 °F -2.0 °F 40% 30.34 in 10.0 mi West 13.8 mph 18.4 mph N/A   Clear
3:53 PM 19.0 °F 6.8 °F -2.9 °F 38% 30.35 in 10.0 mi West 11.5 mph - N/A   Clear
4:53 PM 19.0 °F 5.0 °F -2.9 °F 38% 30.35 in 10.0 mi West 15.0 mph - N/A   Clear
5:53 PM 17.1 °F 2.5 °F -0.9 °F 45% 30.35 in 10.0 mi West 15.0 mph - N/A   Clear
6:53 PM 16.0 °F 2.3 °F -2.0 °F 45% 30.35 in 10.0 mi West 12.7 mph - N/A   Clear
7:53 PM 17.1 °F 5.8 °F -0.9 °F 45% 30.35 in 10.0 mi WSW 9.2 mph - N/A   Clear
8:53 PM 17.1 °F 3.6 °F -2.0 °F 43% 30.34 in 10.0 mi West 12.7 mph - N/A   Overcast
9:53 PM 17.1 °F 5.8 °F -0.9 °F 45% 30.35 in 10.0 mi West 9.2 mph - N/A   Overcast
10:53 PM 17.1 °F 3.6 °F -0.9 °F 45% 30.35 in 10.0 mi West 12.7 mph - N/A   Overcast
11:53 PM 16.0 °F 3.6 °F -2.0 °F 45% 30.36 in 10.0 mi West 10.4 mph - N/A   Overcast